{"data":{"norad_id":62755,"epoch":"2026-05-25T04:00:03.998880Z","epoch_age_seconds":71321,"freshness":"FRESH","line1":"1 62755U 25014W   26145.16671295  .00024813  00000+0  90879-3 0  9995","line2":"2 62755  42.9990  82.6489 0000873 272.9464  15.5982 15.27558081  5792","mean_motion":15.27558081,"eccentricity":8.73e-5,"inclination_deg":42.999,"raan_deg":82.6489,"arg_perigee_deg":272.9464,"mean_anomaly_deg":15.5982,"bstar":0.00090879,"rev_number":579,"period_min":94.268101351493,"perigee_km":482.51574291974,"apogee_km":483.71371747183,"semimajor_km":6861.2517301958,"source":"CELESTRAK","updated_at":"2026-05-25T13:38:19.742530Z"}}